Regional Weather Roundup
Issued by NWS

Home | Current Version | Previous Version | Text Only | Print | Product List | Glossary Off
Versions: 1 2 3 4 5 6 7 8 9 10 11 12 13 14 15 16 17 18 19 20 21 22 23 24 25 26 27 28 29 30 31 32 33 34 35 36 37 38 39 40 41 42 43 44 45 46 47 48 49 50

000
ASUS43 KLMK 250902
RWRKY
KENTUCKY REGIONAL WEATHER ROUNDUP
NATIONAL WEATHER SERVICE LOUISVILLE KY
500 AM EDT WED MAY 25 2016

NOTE "FAIR" INDICATES FEW OR NO CLOUDS BELOW 12,000 FEET
WITH NO SIGNIFICANT WEATHER AND/OR OBSTRUCTIONS TO VISIBILITY.

KYZ001>023-026-027-061>063-070>075-251000-
WESTERN AND SOUTH CENTRAL KENTUCKY

CITY           SKY/WX    TMP DP  RH WIND       PRES   REMARKS
PADUCAH        PTCLDY    65  61  87 CALM      30.02S
HENDERSON      PTCLDY    64  57  77 E3        30.03S
OWENSBORO      CLOUDY    69  62  78 CALM      30.05F
HOPKINSVILLE   CLOUDY    69  62  78 SE5       30.04R
BOWLING GREEN  CLOUDY    67  61  81 CALM      30.07S
GLASGOW        NOT AVBL
$$

KYZ024-025-028>034-038-045-046-053-251000-
NORTH CENTRAL KENTUCKY

CITY           SKY/WX    TMP DP  RH WIND       PRES   REMARKS
LOUISVILLE/SDF CLOUDY    69  56  62 SE6       30.07S
LOUISVILLE/LOU CLOUDY    69  56  62 CALM      30.08S
FORT KNOX      NOT AVBL
$$

KYZ035>037-039>044-047>052-055>060-089>105-251000-
NORTHEAST KENTUCKY

CITY           SKY/WX    TMP DP  RH WIND       PRES   REMARKS
LEXINGTON      PTCLDY    62  50  64 SE7       30.12S
COVINGTON      CLOUDY    61  53  75 S5        30.10F
FRANKFORT      CLOUDY    63  54  72 SE3       30.10S
$$

KYZ054-064>069-076>088-106>120-251000-
SOUTHEAST KENTUCKY

CITY           SKY/WX    TMP DP  RH WIND       PRES   REMARKS
JACKSON        CLEAR     61  47  59 S3        30.16S
LONDON         PTCLDY    56  50  80 CALM      30.15S
SOMERSET       NOT AVBL
MIDDLESBORO    NOT AVBL
MONTICELLO     SUNNY     57  55  93 VRB7      30.14S
$$





USA.gov is the U.S. government's official web portal to all federal, state and local government web resources and services.